Location: Bieujac
(44.5398°N, 0.1549°W)
Time: 06:03:39
(UTC+00:00)

Cosmos 1743 Rocket - Pass Details

Date: 17 November 2019
Orbit: 605 x 632 km, 82.6° (Epoch: 12 December)

Event Time Altitude Azimuth Distance (km) Brightness Sun altitude
Rises 06:07:29 0° 196° (SSW) 2,858 7.0 -9.4°
Reaches altitude 10° 06:09:43 10° 199° (SSW) 1,955 6.1 -9.0°
Maximum altitude 06:14:00 61° 280° (W) 690 3.5 -8.3°
Drops below altitude 10° 06:18:18 10° 2° (N) 1,963 6.0 -7.5°
Sets 06:20:33 0° 6° (N) 2,871 6.8 -7.2°
